INMARSAT 4-F3

Last updated on Tue Sep 16 2025 00:02:46 GMT+0000 (Coordinated Universal Time)

1 33278U 08039A 25258.49374888 -.00000155 00000+0 00000+0 0 9996 2 33278 4.0615 30.3235 0002759 153.8255 250.3389 1.00271021 43796
UTC large
Height (km)
Speed (km/s)
/
Latitude / Longitude
Inclination (degrees)
Orbital Period (minutes)
Azimuth
Elevation
Range (km)
Doppler Factor

Next 0 passes for location: London (51.5072 / 0.1276)

Sorry there are no passes over London.